Regional Weather Roundup
Issued by NWS

Home | Current Version | Previous Version | Graphics & Text | Print | Product List | Glossary On
Versions: 1 2 3 4 5 6 7 8 9 10 11 12 13 14 15 16 17 18 19 20 21 22 23 24 25 26 27 28 29 30 31 32 33 34 35 36 37 38 39 40 41 42 43 44 45 46 47 48 49 50
000
ASUS43 KTOP 291959
RWRKS

WEATHER ROUNDUP FOR KANSAS
NATIONAL WEATHER SERVICE GOODLAND KS
200 PM CST THU JAN 29 2015

NOTE:  "FAIR" INDICATES FEW OR NO CLOUDS BELOW 12,000 FEET WITH NO
SIGNIFICANT WEATHER AND/OR OBSTRUCTIONS TO VISIBILITY.

KSZ001>006-013>018-027>032-041>047-292100-
NORTHWEST KANSAS

CITY           SKY/WX    TMP DP  RH WIND       PRES   REMARKS
GOODLAND       SUNNY     45  22  40 N17       30.47F
HAYS           SUNNY     46  21  36 N14G22    30.47F
HILL CITY      SUNNY     46  24  42 N16G22    30.48F
RUSSELL        SUNNY     48  25  40 N16G24    30.45F
$$

KSZ061>065-074>080-084>089-292100-
SOUTHWEST KANSAS

CITY           SKY/WX    TMP DP  RH WIND       PRES   REMARKS
DODGE CITY     SUNNY     48  22  35 N22G28    30.46F
ELKHART          N/A     49  26  41 N10         N/A
GARDEN CITY    SUNNY     46  23  40 N16       30.47F
LIBERAL        PTSUNNY   48  27  43 NW14G20   30.50F
$$

KSZ066>073-081>083-090>101-292100-
SOUTHEAST KANSAS

CITY           SKY/WX    TMP DP  RH WIND       PRES   REMARKS
CHANUTE        CLOUDY    48  29  47 NW20G30   30.39S
COFFEYVILLE    CLOUDY    48  29  47 NW21      30.40S
HUTCHINSON     SUNNY     50  25  37 N18G26    30.45F
MEDICINE LODGE   N/A     51  26  37 N17       30.44F
NEWTON         PTSUNNY   46  25  42 N24G30    30.43F
PARSONS        CLOUDY    48  30  49 NW15      30.40S
WICHITA INTL   PTSUNNY   50  26  39 N18G28    30.43F
WICHITA JABRA  MOSUNNY   48  27  44 N16       30.43F
WINFIELD       MOSUNNY   50  27  40 N18G26    30.44F
$$

KSZ007>012-019>026-033>040-048>060-102>105-292100-
NORTHEAST KANSAS

CITY           SKY/WX    TMP DP  RH WIND       PRES   REMARKS
CONCORDIA      MOSUNNY   45  27  49 N16G26    30.45F
EMPORIA        CLOUDY    45  27  49 N18G30    30.40S
LAWRENCE       CLOUDY    44  27  51 N18G32    30.39S
MANHATTAN      CLOUDY    44  27  51 N10G18    30.44S
OLATHE IND     CLOUDY    42  27  55 NW24G31   30.38R
OLATHE EXE     CLOUDY    41  27  57 N16G25    30.36R
SALINA         MOSUNNY   48  25  40 N16       30.45F
TOPEKA BILLARD CLOUDY    43  27  53 N21G28    30.41S
TOPEKA FORBES  CLOUDY    44  27  51 N23G31    30.39S
$$


USA.gov is the U.S. government's official web portal to all federal, state and local government web resources and services.